Other Public Products
Issued by NWS Grand Forks, ND

Home | Current Version | Previous Version | Text Only | Print | Product List | Glossary On
Versions: 1 2 3 4 5 6 7 8 9 10 11 12 13 14 15 16 17 18 19 20 21 22 23 24 25 26 27 28 29 30 31 32 33 34 35 36 37 38 39 40 41 42 43 44 45 46 47 48 49 50
000
FPUS83 KFGF 310210
OPUFGF
PRAIRIE TO PINES WEATHER ROUNDUP
NATIONAL WEATHER SERVICE EASTERN NORTH DAKOTA/GRAND FORKS ND
900 PM CDT MON MAR 30 2015

 **SATELLITE DATA USED TO AUGMENT SKY COVER AT AUTOMATED STATIONS**
 *****  WEATHER ACROSS EASTERN NORTH DAKOTA  *****

CITY           SKY/WX    TMP DP  RH WIND       PRES   REMARKS
GRAND FORKS    PTCLDY    41  36  82 S5        29.83R
GRAND FORKS AF PTCLDY    46  37  70 SE1       29.83R
GRAND CITY NWS   N/A     43 N/A N/A SW3         N/A
BUXTON         NOT AVBL
DEVILS LAKE    CLEAR     46  34  61 NW10      29.87R
FARGO          CLEAR     47  36  65 SE6       29.85S
WAHPETON ARPT  CLEAR     50  34  53 NE3       29.87R
$$

 *****  WEATHER ACROSS CENTRAL AND WESTERN NORTH DAKOTA  *****

CITY           SKY/WX    TMP DP  RH WIND       PRES   REMARKS
JAMESTOWN      CLEAR     48  30  49 NW10      29.88R
BISMARCK       PTCLDY    55  33  43 CALM      29.93R
MINOT          CLEAR     49  31  49 W12       29.91R
MINOT AFB      CLEAR     44  34  68 W12       29.90R
GARRISON         N/A     44  32  62 N10       29.92R
WILLISTON      CLEAR     51  31  46 N5        29.93R
DICKINSON      CLEAR     49  28  44 W6        29.93S
HETTINGER      PTCLDY    45  27  49 W3        29.98R
$$

 *****  OTHER OBSERVATIONS NORTHEAST NORTH DAKOTA  *****

CITY           SKY/WX    TMP DP  RH WIND       PRES   REMARKS
WALHALLA         N/A     46  37  71 NW6       29.83R
LANGDON        NOT AVBL
CAVALIER         N/A     45  41  87 S5        29.83R
GRAFTON        NOT AVBL
CANDO          NOT AVBL
FORT TOTTEN      N/A     49  33  53 NW7       29.95
ROLLA          FAIR      46  32  57 NW9       29.87S
RUGBY          NOT AVBL
 ***** THE ABOVE OBSERVATIONS ARE NON NWS ARE NOT QUALITY
        CONTROLLED AND MAY MIS-REPORT RAIN FOR SNOW...
$$

 *****  OTHER OBSERVATIONS SOUTHEAST NORTH DAKOTA *****

CITY           SKY/WX    TMP DP  RH WIND       PRES   REMARKS
COOPERSTOWN    NOT AVBL
VALLEY CITY    FAIR      50  30  46 NW13      29.88R
OAKES            N/A     46  36  66 W8        29.90R
GWINNER        CLEAR     48  32  53 W8          N/A
BUFFALO        NOT AVBL
WYNDMERE       NOT AVBL
 ***** THE ABOVE OBSERVATIONS ARE NON NWS ARE NOT QUALITY
       CONTROLLED AND MAY MIS-REPORT RAIN FOR SNOW...
$$

  *****  WEATHER ACROSS NORTHERN MINNESOTA  *****

CITY           SKY/WX    TMP DP  RH WIND       PRES   REMARKS
FLAG ISLAND    CLOUDY    39  30  70 SW9       29.79S
WARROAD        PTCLDY    41  36  81 S5        29.81F
ROSEAU         MOCLDY    39  34  81 SW10      29.83R
HALLOCK        MOCLDY    43  39  87 S8        29.82R
THF RVR FALLS  MOCLDY    39  36  87 S3        29.85R
HALSTAD        NOT AVBL
FOSSTON        CLEAR     36  36 100 SE5       29.87S
BAUDETTE       CLOUDY    43  32  65 CALM      29.83R
WASKISH        PTCLDY    36  34  93 CALM      29.85F
CROOKSTON      PTCLDY    39  36  87 S10       29.84S
$$
  *****  WEATHER ACROSS CENTRAL AND WEST MINNESOTA  *****

CITY           SKY/WX    TMP DP  RH WIND       PRES   REMARKS
BEMIDJI        PTCLDY    34  34  99 CALM      29.87S
PARK RAPIDS    CLEAR     34  31  88 CALM      29.87R
WADENA         CLEAR     34  30  86 CALM      29.88R
DETROIT LAKES  CLEAR     41  36  81 E3        29.88S
MOORHEAD       CLEAR     46  39  76 SE3       29.87S
FERGUS FALLS   CLEAR     45  32  61 E5        29.89R
ELBOW LAKE     FAIR      45  34  64 NE5       29.87R
MORRIS MN      CLEAR     48  36  61 N7        29.87R
STAPLES        CLEAR     36  32  87 CALM      29.89R
WHEATON        CLEAR     48  36  61 W3        29.90R
$$
  *****  WEATHER ELSEWHERE ACROSS MINNESOTA  *****

CITY           SKY/WX    TMP DP  RH WIND       PRES   REMARKS
DULUTH         MOCLDY    36  34  92 W7        29.86R FOG
INTRNTL FALLS  MOCLDY    42  28  57 W6        29.83R
ELY            CLEAR     32  19  59 CALM      29.83R
CLOQUET        CLOUDY    36  36 100 CALM      29.86R
BRAINERD       CLEAR     35  33  92 CALM      29.89R
HIBBING        PTCLDY    35  32  88 CALM      29.85R
ALEXANDRIA     CLEAR     44  36  73 NE6       29.88R
SAINT CLOUD    CLEAR     45  36  70 NE7       29.86R
MINNEAPOLIS    CLEAR     48  38  68 NE15      29.84R
$$

  *****  WEATHER ACROSS SOUTH DAKOTA  *****

CITY           SKY/WX    TMP DP  RH WIND       PRES   REMARKS
SIOUX FALLS    CLEAR     59  34  39 N12       29.91R
BROOKINGS      NOT AVBL
WATERTOWN      CLEAR     50  32  50 NW3       29.92R
HURON          CLEAR     55  28  35 N9        29.93R
SISSETON         N/A     51  35  54 NW6       29.88R
ABERDEEN       CLEAR     52  31  44 NW5       29.93R
MITCHELL       CLEAR     59  32  36 N12       29.94R
PIERRE         CLEAR     53  25  33 N9        29.95R
MOBRIDGE       CLEAR     51  28  41 NE8       29.92R
RAPID CITY     CLEAR     53  28  38 N8        30.01R
$$

  *****  SOME WEATHER IN NEARBY STATES *****

CITY           SKY/WX    TMP DP  RH WIND       PRES   REMARKS
GLASGOW MT     CLEAR     56  32  40 NW6       29.92S
GREAT FALLS MT MOCLDY    54  28  36 SW7       29.91F
CHEYENNE WY    PTCLDY    57  18  21 N3        30.12R
SCOTTSBLUFF NE CLEAR     55  25  31 NE6       30.03S
OMAHA NE       PTCLDY    69  30  23 W8        29.89R
DES MOINES IA  FAIR      63  31  30 SW12      29.85R
DAVENPORT IA   CLOUDY    62  31  31 SW16G24   29.84S
CHICAGO IL     CLOUDY    48  36  63 SE10      29.87F
EAU CLAIRE WI  CLOUDY    43  39  86 NE8       29.84R
LA CROSSE WI   MOCLDY    50  33  52 E6        29.76R
$$

  *****  SOME NATIONAL WEATHER *****

CITY           SKY/WX    TMP DP  RH WIND       PRES   REMARKS
LA GUARDIA NY  MOCLDY    47  29  49 W16G26    29.86R
RALEIGH NC     FAIR      56  30  37 CALM      30.02R
ATLANTA GA     CLEAR     59  41  51 NW8       30.13R
NEW ORLEANS LA CLEAR     71  61  70 SW9       30.15R
OKLAHOMA CITY  CLOUDY    66  49  54 S3        30.00R
ALBUQUERQUE NM MOCLDY    72  18  13 CALM      30.11S
SALT LAKE CITY PTCLDY    62  27  26 W7        30.06F
LOS ANGELES CA MOCLDY    61  55  82 W9        29.96F
BOISE ID       MOCLDY    70  34  26 S5        29.92F
SEATTLE WA     MOCLDY    59  46  62 SW7       29.88F
$$

*** WEATHER ACROSS MANITOBA...SASKATCHEWAN AND ONTARIO ***
                ***ONTARIO***

CITY           SKY/WX    TMP DP  RH WIND       PRES   REMARKS
GERALDTON      PTCLDY    16  12  86 CALM      29.88R
THUNDER BAY    PTCLDY    28  27  93 E6        29.90R WCI  22
SIOUX LOOKOUT  MOCLDY    36  19  51 SE5       29.80S
TORONTO        PTCLDY    32  21  64 W10       29.89R WCI  24
BIG TROUT LK   CLEAR      5   1  85 E3        29.90S
PICKLE LAKE    CLOUDY    27  10  50 S6        29.83S WCI  20
DRYDEN         CLOUDY    39  25  56 S8        29.78S
KENORA         LGT RAIN  39  36  87 S7        29.78F
$$
                *** MANITOBA***

CITY           SKY/WX    TMP DP  RH WIND       PRES   REMARKS
BRANDON        CLEAR     41  34  75 W10       29.85R
DAUPHIN        CLEAR     43  37  81 W10       29.83R
ISLAND LAKE    CLOUDY    27  19  74 E9G17     29.84R WCI  17
PILOT MOUND      N/A     43  34  70 NW9         N/A
THE PAS        PTCLDY    41  30  65 NW10      29.76R
THOMPSON       MOCLDY    23  14  68 E7        29.86R WCI  15
WINNIPEG       PTCLDY    43  36  75 W9        29.78R
LYNN LAKE      CLOUDY    25  18  74 NE7       29.85R WCI  17
CHURCHILL      PTCLDY    -2  -6  84 N8        30.06R WCI -17
GILLAM         PTCLDY    10  -2  56 E3        29.97R
$$
                ***SASKATCHEWAN***

CITY           SKY/WX    TMP DP  RH WIND       PRES   REMARKS
ESTEVAN        PTCLDY    43  32  65 NW9       29.93S
KINDERSLEY     PTCLDY    45  30  57 E9        29.89S
LLOYDMINSTER   MOCLDY    45  30  57 SW7       29.86F
PRINCE ALBERT  PTCLDY    43  32  65 W9        29.86R
REGINA         PTCLDY    43  34  70 NW7       29.93R
YORKTON        CLEAR     43  36  75 W12       29.87R



USA.gov is the U.S. government's official web portal to all federal, state and local government web resources and services.